Meath Environmental Platform

Observations for Trim Patrick St

Time AQI Temp °C Hum % Pres Pa CO μg/m³ H₂S μg/m³ NO μg/m³ NO₂ μg/m³ O₃ μg/m³ SO₂ μg/m³ PM1 μg/m³ PM2.5 μg/m³ PM10 μg/m³
Saturday 8 August 2026
10:24 1 24.8 46 69,069 0 0 1.9 8.41 59 5.93 2 6.65 7.31
10:23 1 24.9 46 69,071 0 0 1.78 9.49 66.23 6.56 2.86 8.21 9.03
10:22 1 24.9 46 69,076 0 0 1.77 7.06 58.95 6.32 2 6.67 7.33
10:21 1 24.9 46 69,059 0 0 1.86 8.88 64.64 5.74 2.86 7.43 8.17
10:20 1 24.9 46 69,065 0 0 1.82 6.38 55.97 6.3 2 6.65 7.32
10:19 1 25 46 69,041 0 0 1.74 7.31 59.81 5.88 2.86 7.46 8.21
10:18 1 25 46 69,041 0 0 1.78 7.03 56.47 6.25 2 6.67 7.33
10:17 1 25 46 69,041 0 0 1.79 4.46 57.21 6.26 2 6.7 7.37
10:16 1 25 45 69,045 0 0 1.74 7.95 61.1 5.3 3.71 9.05 9.96
10:15 1 25 46 69,043 0 0 1.85 2.77 29.43 4.9 2.86 7.46 8.2
10:14 1 25 47 69,074 0 0 1.83 7.77 56.79 7.07 2.86 8.14 8.96
10:13 1 25 46 69,082 0 0 1.81 9.03 61.47 5.91 2 7.45 8.2
10:12 1 25 45 69,061 0 0 1.84 6.43 51.42 5.58 2.86 8.26 9.09
10:11 1 25.1 45 69,067 0 0 1.84 6.71 50.5 6 2 6.71 7.38
10:10 1 25.1 46 69,072 0 0 1.87 5.57 52.48 6.27 2.86 7.43 8.17
10:09 1 25.1 46 69,076 0 0 1.87 7.43 52.07 5.55 2 6.67 7.34
10:08 1 25.1 46 69,084 0 0 1.86 6.89 43.44 5.55 2 6.68 7.35
10:07 1 25.1 46 69,094 0 0 1.85 6.97 45.68 6.38 2 7.45 8.2
10:06 1 25 46 69,108 0 0 1.88 7.15 44.27 6 2 6.67 7.34
10:05 1 25.1 46 69,122 0 0 1.8 7.35 44.63 5.32 2.86 8.22 9.04